N420BF -KHND

Flight info

Callsign N420BF
Flight time N/A
Altitude 7000
Route
Aircraft TBM8/L-VGD/C

Departure

Time N/A
Airport -

Arrival

Time 2026-04-26 00:48
Airport Henderson Executive Airport (KHND)
Time Latitude Longitude Altitude Speed Heading
2026-04-26 00:26 35.93452 -114.64648 6499 ft 209 kts 233°
2026-04-26 00:26 35.92569 -114.66069 6500 ft 208 kts 233°
2026-04-26 00:26 35.91687 -114.67491 6502 ft 208 kts 233°
2026-04-26 00:26 35.90808 -114.68909 6502 ft 208 kts 233°
2026-04-26 00:27 35.89927 -114.70328 6502 ft 208 kts 233°
2026-04-26 00:27 35.89047 -114.71744 6502 ft 208 kts 233°
2026-04-26 00:27 35.88168 -114.73161 6502 ft 208 kts 233°
2026-04-26 00:27 35.87289 -114.74577 6502 ft 208 kts 233°
2026-04-26 00:28 35.86408 -114.75995 6500 ft 208 kts 233°
2026-04-26 00:28 35.85530 -114.77413 6502 ft 208 kts 233°
2026-04-26 00:28 35.84651 -114.78831 6552 ft 206 kts 233°
2026-04-26 00:28 35.83785 -114.80222 6676 ft 203 kts 233°
2026-04-26 00:29 35.82925 -114.81604 6716 ft 205 kts 233°
2026-04-26 00:29 35.82066 -114.82989 6713 ft 207 kts 233°
2026-04-26 00:29 35.81191 -114.84400 6713 ft 208 kts 233°
2026-04-26 00:29 35.80312 -114.85816 6716 ft 208 kts 233°
2026-04-26 00:30 35.79456 -114.87258 6714 ft 208 kts 241°
2026-04-26 00:30 35.79181 -114.88976 6715 ft 208 kts 277°
2026-04-26 00:30 35.79794 -114.90557 6714 ft 209 kts 313°
2026-04-26 00:30 35.81059 -114.91390 6715 ft 210 kts 349°
2026-04-26 00:31 35.82488 -114.91151 6714 ft 211 kts 23°
2026-04-26 00:31 35.83771 -114.90273 6723 ft 211 kts 30°
2026-04-26 00:31 35.85032 -114.89338 6728 ft 211 kts 31°
2026-04-26 00:31 35.86290 -114.88396 6724 ft 211 kts 31°
2026-04-26 00:32 35.87551 -114.87456 6731 ft 211 kts 28°
2026-04-26 00:32 35.88938 -114.87060 6723 ft 210 kts 355°
2026-04-26 00:32 35.91831 -114.87483 6725 ft 210 kts
2026-04-26 00:33 35.93289 -114.87267 6726 ft 211 kts
2026-04-26 00:33 35.94742 -114.87027 6728 ft 211 kts
2026-04-26 00:33 35.96200 -114.86823 6728 ft 211 kts
2026-04-26 00:33 35.97587 -114.86620 6718 ft 179 kts
2026-04-26 00:34 35.98773 -114.86454 6711 ft 168 kts
2026-04-26 00:34 35.99905 -114.86283 6710 ft 165 kts 14°
2026-04-26 00:34 36.00792 -114.85453 6714 ft 164 kts 59°
2026-04-26 00:34 36.01020 -114.84100 6713 ft 163 kts 99°
2026-04-26 00:35 36.00504 -114.82889 6714 ft 162 kts 138°
2026-04-26 00:35 35.99499 -114.82318 6720 ft 160 kts 167°
2026-04-26 00:35 35.98417 -114.81976 6726 ft 161 kts 165°
2026-04-26 00:35 35.97336 -114.81618 6729 ft 161 kts 166°
2026-04-26 00:36 35.96253 -114.81262 6731 ft 161 kts 166°
2026-04-26 00:36 35.95166 -114.81110 6724 ft 160 kts 193°
2026-04-26 00:36 35.94269 -114.81857 6723 ft 158 kts 234°
2026-04-26 00:36 35.93960 -114.83128 6707 ft 159 kts 273°
2026-04-26 00:37 35.94400 -114.84376 6587 ft 165 kts 314°
2026-04-26 00:37 35.95418 -114.85012 6476 ft 168 kts 345°
2026-04-26 00:37 35.96482 -114.85324 6344 ft 144 kts 346°
2026-04-26 00:37 35.97407 -114.85629 6218 ft 130 kts 344°
2026-04-26 00:38 35.98229 -114.85908 6214 ft 116 kts 343°
2026-04-26 00:38 35.98958 -114.86216 6213 ft 107 kts 330°
2026-04-26 00:38 35.99581 -114.86683 6210 ft 103 kts 327°
2026-04-26 00:38 35.99918 -114.87387 6211 ft 98 kts 259°
2026-04-26 00:39 35.99642 -114.88161 6222 ft 103 kts 248°
2026-04-26 00:39 35.99488 -114.89056 6236 ft 111 kts 265°
2026-04-26 00:39 35.99378 -114.90027 6233 ft 116 kts 263°
2026-04-26 00:39 35.99251 -114.91013 6232 ft 119 kts 256°
2026-04-26 00:40 35.99058 -114.92025 6235 ft 120 kts 257°
2026-04-26 00:40 35.98878 -114.93023 6230 ft 121 kts 259°
2026-04-26 00:40 35.98731 -114.94042 6232 ft 121 kts 260°
2026-04-26 00:40 35.98595 -114.95064 6231 ft 121 kts 261°
2026-04-26 00:41 35.98470 -114.96091 6235 ft 121 kts 261°
2026-04-26 00:41 35.98349 -114.97118 6231 ft 121 kts 262°
2026-04-26 00:41 35.98233 -114.98145 6230 ft 121 kts 262°
2026-04-26 00:41 35.98119 -114.99151 6230 ft 121 kts 262°
2026-04-26 00:42 35.97998 -115.00205 6230 ft 121 kts 262°
2026-04-26 00:42 35.97878 -115.01235 6234 ft 121 kts 261°
2026-04-26 00:42 35.97760 -115.02266 6200 ft 122 kts 262°
2026-04-26 00:42 35.97650 -115.03318 5998 ft 124 kts 264°
2026-04-26 00:43 35.97566 -115.04367 5780 ft 121 kts 265°
2026-04-26 00:43 35.97504 -115.05404 5519 ft 121 kts 266°
2026-04-26 00:43 35.97428 -115.06418 5299 ft 117 kts 264°
2026-04-26 00:43 35.97347 -115.07394 5131 ft 113 kts 264°
2026-04-26 00:44 35.97256 -115.08347 4932 ft 113 kts 263°
2026-04-26 00:44 35.97159 -115.09299 4728 ft 112 kts 263°
2026-04-26 00:44 35.97059 -115.10257 4499 ft 113 kts 262°
2026-04-26 00:44 35.96940 -115.11215 4292 ft 112 kts 261°
2026-04-26 00:45 35.96798 -115.12141 4145 ft 107 kts 258°
2026-04-26 00:45 35.96646 -115.13035 3965 ft 106 kts 258°
2026-04-26 00:45 35.96504 -115.13932 3757 ft 107 kts 262°
2026-04-26 00:45 35.96504 -115.14852 3613 ft 107 kts 278°
2026-04-26 00:46 35.96838 -115.15673 3579 ft 110 kts 311°
2026-04-26 00:46 35.97473 -115.16127 3477 ft 110 kts 347°
2026-04-26 00:46 35.98275 -115.16204 3419 ft 118 kts 358°
2026-04-26 00:46 35.98985 -115.15916 3374 ft 101 kts 44°
2026-04-26 00:47 35.99132 -115.15159 3200 ft 98 kts 94°
2026-04-26 00:47 35.99088 -115.14333 2881 ft 92 kts 94°
2026-04-26 00:47 35.98827 -115.13684 2623 ft 85 kts 155°
2026-04-26 00:47 35.98256 -115.13538 2437 ft 81 kts 182°
2026-04-26 00:48 35.97758 -115.13538 2420 ft 51 kts 181°
2026-04-26 00:48 35.97600 -115.13540 2428 ft 8 kts 179°
2026-04-26 00:48 35.97486 -115.13542 2432 ft 23 kts 188°
2026-04-26 00:48 35.97457 -115.13637 2431 ft 2 kts 307°